Lexington Weather

Lexington, Massachusetts, USA

48°F
12/8/2022 3:06pm 
  • Lexington Conditions: Clear
  • Temperature: 48.4°F / 9.1°CColder 1.2°F than last hour.
  • Dew Point: 35.6°FIncreased 0.2°Fsince last hour.
  • Relative Humidity: 61%Increased 3.0% since last hour.
  • Wind: Wind from W W 1 mph, 10-min avg: 1 mph, gust: 8 mph
  • Barometer: 30.09 inRising 0.03  inHg/hr Rising Slowly
  • Visibility: 10 miles
  • Rain Today: 0.00 in
  •   

Warning: Undefined variable $rc in /homepages/6/d276339138/htdocs/weather/20190804/ssi/nwsProduct.php on line 323

Warning: Undefined variable $rc in /homepages/6/d276339138/htdocs/weather/20190804/ssi/nwsProduct.php on line 325

Warning: Undefined variable $rc in /homepages/6/d276339138/htdocs/weather/20190804/ssi/nwsProduct.php on line 323

Warning: Undefined variable $rc in /homepages/6/d276339138/htdocs/weather/20190804/ssi/nwsProduct.php on line 325

Warning: Undefined variable $rc in /homepages/6/d276339138/htdocs/weather/20190804/ssi/nwsProduct.php on line 323

Warning: Undefined variable $rc in /homepages/6/d276339138/htdocs/weather/20190804/ssi/nwsProduct.php on line 325

Warning: Undefined variable $rc in /homepages/6/d276339138/htdocs/weather/20190804/ssi/nwsProduct.php on line 323

Warning: Undefined variable $rc in /homepages/6/d276339138/htdocs/weather/20190804/ssi/nwsProduct.php on line 325

Warning: Undefined variable $rc in /homepages/6/d276339138/htdocs/weather/20190804/ssi/nwsProduct.php on line 323

Warning: Undefined variable $rc in /homepages/6/d276339138/htdocs/weather/20190804/ssi/nwsProduct.php on line 325

Warning: Undefined variable $rc in /homepages/6/d276339138/htdocs/weather/20190804/ssi/nwsProduct.php on line 323

Warning: Undefined variable $rc in /homepages/6/d276339138/htdocs/weather/20190804/ssi/nwsProduct.php on line 325

Warning: Undefined variable $rc in /homepages/6/d276339138/htdocs/weather/20190804/ssi/nwsProduct.php on line 323

Warning: Undefined variable $rc in /homepages/6/d276339138/htdocs/weather/20190804/ssi/nwsProduct.php on line 325

Regional Weather Roundup
for Boston, MA

        
000
ASUS41 KBOX 031310
RWRBOX

REGIONAL WEATHER ROUNDUP
NATIONAL WEATHER SERVICE BOSTON/NORTON MA
800 AM EST SAT DEC 03 2022

NOTE:  "FAIR" INDICATES FEW OR NO CLOUDS BELOW 12,000 FEET WITH NO 
SIGNIFICANT WEATHER AND/OR OBSTRUCTIONS TO VISIBILITY.

MAZALL-031400-
EASTERN MASSACHUSETTS
  
CITY           SKY/WX    TMP DP  RH WIND       PRES   REMARKS
BOSTON         CLOUDY    51  47  86 S16       30.20F                  
BEVERLY        CLOUDY    50  45  83 S9        30.19F                  
LAWRENCE       CLOUDY    48  43  82 S6        30.20F                  
BEDFORD        CLOUDY    51  45  79 S10       30.18F                  
NORWOOD        CLOUDY    54  48  80 S10       30.21F                  
MARSHFIELD       N/A     55  50  82 S15G24    30.22F                  
PLYMOUTH       CLOUDY    56  49  77 SW12G21   30.24F                  
TAUNTON          N/A    N/A N/A N/A MISG      30.23F                  
NEW BEDFORD    CLOUDY    57  52  83 S17G28    30.25F                  
$$

MAZALL-031400-
CAPE COD AND THE ISLANDS
  
CITY           SKY/WX    TMP DP  RH WIND       PRES   REMARKS
FALMOUTH       MOCLDY    55  50  82 S17G26    30.27F                  
HYANNIS        CLOUDY    53  49  86 S15G26    30.26F                  
CHATHAM        CLOUDY    54  48  80 S9G20     30.30F                  
PROVINCETOWN   CLOUDY    54  50  86 S17G23    30.26F                  
NANTUCKET      CLOUDY    57  52  83 S17       30.31F                  
MARTHAS VNYRD  CLOUDY    58  51  78 S20G30    30.28F                  
$$
 
MAZALL-031400-
CENTRAL AND WESTERN MASSACHUSETTS
  
CITY           SKY/WX    TMP DP  RH WIND       PRES   REMARKS
WORCESTER      CLOUDY    49  46  90 S14       30.15F                  
FITCHBURG      CLOUDY    45  41  86 SE6       30.16F                  
ORANGE         CLOUDY    50  46  86 S15G28    30.13F                  
SPRINGFIELD    DRIZZLE   42  41  99 SW5       30.12F FOG              
WESTFIELD      LGT RAIN  41  40  96 CALM      30.14F FOG              
NORTH ADAMS    CLOUDY    51  43  74 SW17G31   30.09F                  
PITTSFIELD     LGT RAIN  47  43  86 S15G28    30.07F                  
$$
 
RIZALL-031400-
RHODE ISLAND
  
CITY           SKY/WX    TMP DP  RH WIND       PRES   REMARKS
PROVIDENCE     CLOUDY    56  49  77 S22G32    30.23F                  
NEWPORT        CLOUDY    56  49  77 S14G26    30.24F                  
BLOCK ISLAND   CLOUDY    57  50  77 S23G33    30.25F                  
SMITHFIELD     CLOUDY    53  49  86 S8        30.21F                  
WESTERLY       CLOUDY    57  50  77 S16G31    30.23F                  
$$
 
CTZALL-031400-
CONNECTICUT
  
CITY           SKY/WX    TMP DP  RH WIND       PRES   REMARKS
BRADLEY INTL   DRIZZLE   51  48  89 S10       30.15F FOG              
HARTFORD       CLOUDY    54  49  83 S12       30.16F                  
BRIDGEPORT     LGT RAIN  55  50  83 SW22G30   30.18                   
DANBURY        LGT RAIN  54  49  83 S10G22    30.16F                  
GROTON         CLOUDY    59  50  72 S25G32    30.21F                  
NEW HAVEN      CLOUDY    59  51  75 SW17G25   30.19F                  
CHESTER        CLOUDY   N/A N/A N/A S14G22    30.20F                  
MERIDEN        CLOUDY    52  48  86 S8        30.18F                  
WILLIMANTIC    CLOUDY    48  46  93 SW8       30.20F                  
OXFORD         LGT RAIN  51  50  96 S16G26    30.17F FOG              
$$

MEZ002-015-021-024-NHZ003-005-008-011-012-014-VTZ005-008-031400-
NORTHERN NEW ENGLAND
  
CITY           SKY/WX    TMP DP  RH WIND       PRES   REMARKS
PORTLAND ME    CLOUDY    48  45  89 S12G20    30.18F                  
BANGOR ME      CLOUDY    48  41  76 S15G25    30.19F                  
CONCORD NH     CLOUDY    42  38  85 SE8       30.14F                  
MANCHESTER NH  CLOUDY    43  39  86 SE9       30.14F                  
NASHUA NH      CLOUDY    41  41 100 SE5       30.17F                  
PORTSMOUTH NH  CLOUDY    49  44  81 S9        30.17F                  
JAFFREY NH     CLOUDY    49  45  86 S15G24    30.11F FOG              
KEENE NH       LGT RAIN  44  43  96 S3          N/A  FOG              
BURLINGTON VT  CLOUDY    44  29  55 S20G26    29.97S                  
MT. WASHINGTON FOG       28  28 100 SW62G72     N/A  VSB 1/8 WCI   8  
$$

NYZ052-076-031400-
EASTERN NEW YORK
  
CITY           SKY/WX    TMP DP  RH WIND       PRES   REMARKS
ALBANY         MOCLDY    46  37  71 S14G24    30.07R                  
NEW YORK CITY  LGT RAIN  52  47  83 S8        30.19F                  
$$
 
ANZALL-031400-
MARINE OBSERVATIONS
  
STATION/POSITION TIME  TEMP    WIND        PRES    VSBY  WAVE
                       AIR SEA DIR/SP/G                  HT/PER
                 (UTC) (F)     (DEG/KT/KT) (MB)    (MI)  (FT/S)
BOSTON BUOY      1250      51  160/ 16/ 19 1023.6F         3/ 4
BUZZARDS BAY     1200   55     190/ 22/ 24 1025.4F
NANTUCKET SOUND  1250   55     180/ 17/ 21 1025.7S         2/ 4
MASS BAY-STELLWA 1104   50 50  170/ 17/ 21 1023.8F  1 7/8  3/ 4
ISLE OF SHOALS   1200   50     170/ 23/ 25 1022.7F
S OF BLOCK IS    1256      56                N/A           6/ 6
$$

......................KEY.........................
  SKY/WX - SKY CONDITION/PRESENT WEATHER
  TMP    - TEMPERATURE IN FAHRENHEIT
  DWPT   - DEWPOINT IN FAHRENHEIT
  RH     - RELATIVE HUMIDITY IN PERCENT
  WIND   - DIRECTION AND SPEED IN MPH
  PRES   - MEAN SEA LEVEL PRESSURE IN INCHES OF HG
  WCI    - WIND CHILL INDEX
  VSB    - VISIBILITY IN MILES
  HX     - HEAT INDEX
  TC     - TEMPERATURE IN CELSIUS
  VRB    - VARIABLE WIND DIRECTION
  N/A    - NOT AVAILABLE
  
      

Other recent Regional Weather Roundups

Thu Dec 8, 2:10pm

Thu Dec 8, 1:10pm

Thu Dec 8, 12:10pm

Thu Dec 8, 11:10am

Thu Dec 8, 10:10am

Thu Dec 8, 9:10am

Thu Dec 8, 8:10am

Thu Dec 8, 7:10am

Thu Dec 8, 6:10am

Thu Dec 8, 5:10am

Thu Dec 8, 4:10am

Thu Dec 8, 3:10am

Thu Dec 8, 2:10am

Thu Dec 8, 1:10am

Thu Dec 8, 12:10am

Wed Dec 7, 11:10pm

Wed Dec 7, 10:10pm

Wed Dec 7, 9:10pm

Wed Dec 7, 8:10pm

Wed Dec 7, 7:10pm

Wed Dec 7, 6:10pm

Wed Dec 7, 5:10pm

Wed Dec 7, 4:10pm

Wed Dec 7, 3:10pm

Wed Dec 7, 2:10pm

Wed Dec 7, 1:10pm

Wed Dec 7, 12:10pm

Wed Dec 7, 11:10am

Wed Dec 7, 10:10am

Wed Dec 7, 9:10am

Wed Dec 7, 8:10am

Wed Dec 7, 7:10am

Wed Dec 7, 6:10am

Wed Dec 7, 5:10am

Wed Dec 7, 4:10am

Wed Dec 7, 3:10am

Wed Dec 7, 2:10am

Wed Dec 7, 1:10am

Wed Dec 7, 12:10am

Tue Dec 6, 11:10pm

Tue Dec 6, 10:10pm

Tue Dec 6, 9:10pm

Tue Dec 6, 8:10pm

Tue Dec 6, 7:10pm

Tue Dec 6, 6:10pm

Tue Dec 6, 5:10pm

Tue Dec 6, 4:10pm

Tue Dec 6, 3:10pm

Tue Dec 6, 2:10pm

Tue Dec 6, 1:10pm

Tue Dec 6, 12:10pm

Tue Dec 6, 11:10am

Tue Dec 6, 10:10am

Tue Dec 6, 9:10am

Tue Dec 6, 8:10am

Tue Dec 6, 7:10am

Tue Dec 6, 6:10am

Tue Dec 6, 5:10am

Tue Dec 6, 4:10am

Tue Dec 6, 3:10am

Tue Dec 6, 2:10am

Tue Dec 6, 1:10am

Tue Dec 6, 12:10am

Mon Dec 5, 11:10pm

Mon Dec 5, 10:10pm

Mon Dec 5, 9:10pm

Mon Dec 5, 8:10pm

Mon Dec 5, 7:10pm

Mon Dec 5, 6:10pm

Mon Dec 5, 5:10pm

Mon Dec 5, 4:10pm

Mon Dec 5, 3:10pm

Mon Dec 5, 2:10pm

Mon Dec 5, 1:10pm

Mon Dec 5, 12:10pm

Mon Dec 5, 11:10am

Mon Dec 5, 10:10am

Mon Dec 5, 9:10am

Mon Dec 5, 8:10am

Mon Dec 5, 7:10am

Mon Dec 5, 6:10am

Mon Dec 5, 5:10am

Mon Dec 5, 4:10am

Mon Dec 5, 3:10am

Mon Dec 5, 2:10am

Mon Dec 5, 1:10am

Mon Dec 5, 12:10am

Sun Dec 4, 11:10pm

Sun Dec 4, 10:10pm

Sun Dec 4, 9:10pm

Sun Dec 4, 8:10pm

Sun Dec 4, 7:10pm

Sun Dec 4, 6:10pm

Sun Dec 4, 5:10pm

Sun Dec 4, 4:10pm

Sun Dec 4, 3:10pm

Sun Dec 4, 2:10pm

Sun Dec 4, 1:10pm

Sun Dec 4, 12:10pm

Sun Dec 4, 11:10am

Sun Dec 4, 10:10am

Sun Dec 4, 9:10am

Sun Dec 4, 8:10am

Sun Dec 4, 7:10am

Sun Dec 4, 6:10am

Sun Dec 4, 5:10am

Sun Dec 4, 4:10am

Sun Dec 4, 3:10am

Sun Dec 4, 2:10am

Sun Dec 4, 1:10am

Sun Dec 4, 12:10am

Sat Dec 3, 11:10pm

Sat Dec 3, 10:10pm

Sat Dec 3, 9:10pm

Sat Dec 3, 8:10pm

Sat Dec 3, 7:10pm

Sat Dec 3, 6:10pm

Sat Dec 3, 5:10pm

Sat Dec 3, 4:10pm

Sat Dec 3, 3:10pm

Sat Dec 3, 2:10pm

Sat Dec 3, 1:10pm

Sat Dec 3, 12:10pm

Sat Dec 3, 11:10am

Sat Dec 3, 10:10am

Sat Dec 3, 9:10am

Sat Dec 3, 7:10am

Sat Dec 3, 6:10am

Sat Dec 3, 5:10am

Sat Dec 3, 4:10am

Sat Dec 3, 3:10am

Sat Dec 3, 2:10am

Sat Dec 3, 1:10am

Sat Dec 3, 12:10am

Fri Dec 2, 11:10pm

Fri Dec 2, 10:10pm

Fri Dec 2, 9:10pm

Fri Dec 2, 8:10pm

Fri Dec 2, 7:10pm

Fri Dec 2, 6:10pm

Fri Dec 2, 5:10pm

Fri Dec 2, 4:10pm

Fri Dec 2, 3:10pm

Fri Dec 2, 2:10pm

Fri Dec 2, 1:10pm

Fri Dec 2, 12:10pm

Fri Dec 2, 11:10am

Fri Dec 2, 10:10am

Fri Dec 2, 9:10am

Fri Dec 2, 8:10am

Fri Dec 2, 7:10am

Fri Dec 2, 6:10am

Fri Dec 2, 5:10am

Fri Dec 2, 4:10am

Fri Dec 2, 3:10am

Fri Dec 2, 2:10am

Fri Dec 2, 1:10am

Fri Dec 2, 12:10am

Thu Dec 1, 11:10pm

Thu Dec 1, 10:10pm

Thu Dec 1, 9:10pm

Thu Dec 1, 8:10pm

Thu Dec 1, 7:10pm

Thu Dec 1, 6:10pm

Thu Dec 1, 5:10pm

Thu Dec 1, 4:10pm

Thu Dec 1, 3:10pm

Meta data:

ID: 746bfeef-2ea4-4c3a-859c-52336e7f0a3e
Link: https://api.weather.gov/products/746bfeef-2ea4-4c3a-859c-52336e7f0a3e